CAPE
1276 968 799 795 730 514 474 360 186 202 141 57 27 39 3 68 239 303 189 379 293 301 166 178 242 348 235 198 356 282 212 170 95 161 58 2 1 2 2 1 1 3 4
1296 943 986 877 779 439 541 440 166 141 34 3 2 122 82 4 2 1 6 17 8 2 9 38 24 120 204 237 287 327 295 286 250 98 72 1 2 3 3 1 4 4 3
1289 1143 982 1042 792 629 334 299 110 39 27 7 5 18 2 1 2 3 1 0 2 2 2 2 1 0 0 0 0 2 0 46 53 52 1 2 3 3 3 3 3 2 3
1379 1164 1011 1102 1022 715 515 315 78 52 44 2 3 6 2 2 0 1 2 2 2 2 2 1 1 0 1 2 0 0 0 0 0 0 2 3 2 2 2 2 2 3 3
1334 1052 1142 964 917 702 467 329 96 6 4 4 4 2 0 0 0 3 0 1 0 1 1 0 0 0 0 0 0 0 0 0 0 0 0 1 1 1 1 2 3 2 2
1355 1163 1128 1062 911 663 537 257 85 1 2 4 2 0 0 0 0 0 3 0 0 1 1 1 1 0 0 0 0 0 0 0 0 0 0 2 1 2 1 1 0 1 0
1874 1504 1265 1057 811 855 593 213 56 1 1 2 2 0 0 0 0 0 0 2 1 2 1 1 0 0 0 0 0 0 0 0 0 0 0 1 1 0 0 0 1 0 1
1499 1221 937 979 1253 1051 589 189 46 0 0 0 2 0 0 0 0 0 0 0 0 0 0 0 0 0 0 0 0 0 0 0 0 0 0 0 0 0 0 0 0 0 0
496 278 79 47 317 1270 642 175 27 0 0 1 3 2 0 0 0 0 0 0 0 0 0 0 0 0 0 0 0 0 0 0 0 0 0 0 0 0 0 0 2 2 0
4 0 0 0 0 655 458 77 0 1 0 1 1 0 0 0 0 0 0 0 0 0 0 0 0 0 0 0 1 0 0 0 0 0 0 0 0 0 0 0 0 0 1
0 0 1 2 0 0 9 3 1 0 1 0 0 0 0 0 0 0 0 0 0 0 0 0 0 0 0 0 0 0 0 0 0 0 0 0 0 0 0 0 0 0 0
1 2 2 2 1 0 0 0 0 0 0 0 1 0 0 0 0 0 0 0 0 0 0 0 0 0 0 0 0 0 0 0 0 0 0 0 0 0 0 0 0 0 0
3 3 3 3 2 1 0 0 0 0 0 0 0 0 0 0 0 0 0 0 0 0 0 0 0 0 0 0 0 0 0 0 0 0 0 0 0 0 0 0 0 0 0
4 4 3 1 2 2 1 1 1 1 0 0 0 0 0 0 0 0 0 0 0 0 0 0 0 0 0 0 0 0 0 0 0 0 0 0 0 0 0 0 2 6 1
2 1 1 2 2 0 1 1 1 0 0 0 1 1 2 0 0 0 0 0 0 0 0 0 0 0 0 0 0 0 0 0 0 0 0 0 0 0 0 0 0 0 0
0 0 0 0 0 0 0 0 0 0 0 0 0 0 0 0 0 0 0 0 0 0 0 0 0 0 0 0 0 0 0 0 0 0 0 0 0 0 0 0 0 0 0
0 0 0 0 0 0 0 0 0 0 0 0 0 0 0 0 0 0 0 0 0 0 0 0 0 0 0 0 0 0 0 0 0 0 0 0 0 0 0 0 0 0 0
0 0 0 1 0 0 0 0 0 0 0 0 0 0 0 0 0 0 0 0 0 0 0 0 0 0 0 0 0 0 0 0 0 0 0 0 0 0 0 0 0 0 0
0 0 0 0 0 0 0 0 0 0 0 0 0 0 0 0 0 0 0 0 0 0 0 0 0 0 0 0 0 0 0 0 0 0 0 0 0 0 0 0 0 0 0
0 0 0 0 0 0 0 0 0 0 0 0 0 0 0 0 0 0 0 0 0 0 0 0 0 0 0 0 0 0 0 0 0 0 0 0 0 0 0 0 0 0 0
0 0 0 0 0 0 0 0 0 0 0 0 0 0 0 0 0 0 0 0 0 0 0 0 0 0 0 0 0 0 0 0 0 0 0 0 0 0 0 0 0 0 0
0 0 0 0 0 0 0 0 0 0 0 0 0 0 0 0 0 0 0 0 0 0 0 0 0 0 0 0 0 0 0 0 0 0 0 0 0 0 0 0 0 0 0
0 0 0 1 0 0 3 5 5 5 9 5 2 0 0 0 0 0 0 0 0 0 0 0 0 0 0 0 0 0 0 0 0 0 2 1 0 0 0 0 0 0 0
2 5 12 3 5 8 10 10 5 0 1 2 4 2 0 0 0 1 0 0 0 0 0 0 0 0 0 0 0 0 0 0 0 0 0 0 0 0 0 0 0 0 0
16 15 16 8 0 6 6 2 1 1 2 1 4 14 6 6 7 11 29 38 33 7 6 11 0 0 0 1 0 0 0 0 0 0 0 0 0 0 0 0 0 0 0
2 0 0 0 0 0 1 0 1 2 0 0 2 14 22 19 14 24 26 49 18 35 28 42 22 21 1 11 0 0 0 0 0 0 0 0 0 0 0 0 0 0 0
CIN
-5 -10 -25 -27 -47 -43 -43 -36 -42 -44 -51 -134 -127 -107 -22 -25 -4 -4 -12 -3 -7 -4 -13 -8 -7 -5 -8 -15 -24 -26 -20 -19 -18 -8 -6 0 0 0 0 0 0 0 0
-5 -16 -11 -18 -30 -44 -30 -15 -51 -66 -115 -2 -4 -54 -46 -4 -7 -2 -49 -46 -42 -48 -53 -25 -14 -17 -5 -5 -4 -8 -11 -13 -6 -13 -1 0 0 0 0 0 0 0 0
-2 -3 -1 -3 -26 -25 -63 -41 -59 -96 -63 -4 -4 -57 -12 -11 -5 -3 -1 0 0 0 0 0 0 0 0 0 0 -1 0 -14 -14 -12 0 0 0 0 0 0 0 0 0
-2 -2 -4 -5 -14 -11 -14 -24 -48 -66 -63 -3 -2 -6 -5 -3 -1 -5 -1 -1 0 0 0 0 0 0 0 0 -1 0 0 0 0 0 0 0 0 0 0 0 0 0 0
-2 -3 -5 -21 -21 -23 -4 -9 -46 -13 0 0 -1 -2 0 0 0 -3 0 -2 0 0 0 0 0 0 0 0 0 -8 0 0 0 0 0 0 0 0 0 0 0 0 0
-1 -1 -7 -15 -19 -17 -9 -32 -48 -1 0 -1 -1 0 0 0 0 0 -4 0 -2 -1 -1 -1 -3 0 0 0 0 0 0 0 0 0 0 0 0 0 0 0 0 0 0
-6 -11 -14 -5 -21 -14 -10 -60 -69 0 -2 -1 -2 0 0 0 0 0 0 -8 -4 -2 -3 -2 -1 0 0 0 0 0 0 0 0 0 0 0 0 0 0 0 0 0 0
-34 -56 -68 -45 -1 -7 -5 -46 -69 0 0 0 -1 0 0 0 0 0 0 -3 -4 0 0 0 0 0 0 0 0 0 0 0 0 0 0 0 0 0 0 0 0 0 0
-183 -222 -272 -260 -138 -1 -14 -41 -46 0 -1 -1 -3 -1 0 0 0 0 0 0 0 0 0 0 0 0 0 0 0 0 0 0 0 0 0 0 0 0 0 -1 -8 -14 0
-416 0 0 0 0 -21 -13 -55 -18 -23 -1 -2 -3 0 0 0 0 0 0 0 0 0 0 0 0 0 0 0 -4 0 0 0 0 0 0 0 0 0 0 0 0 0 -9
0 0 0 0 0 0 -28 -5 -34 -1 -1 0 0 0 0 0 0 0 0 0 -1 -1 0 0 0 0 0 0 0 0 0 0 0 0 0 0 0 0 0 0 0 0 0
0 0 0 0 0 0 0 0 0 -1 0 0 -1 0 0 0 0 0 0 0 0 0 0 0 0 0 0 0 0 0 0 0 0 0 0 0 0 0 0 0 0 0 0
0 0 0 0 0 0 0 0 0 0 0 0 0 0 0 0 0 0 0 0 0 0 0 0 0 0 0 0 0 0 0 0 0 0 0 0 0 0 0 0 0 0 0
0 0 0 0 0 0 0 0 0 0 0 0 0 0 0 0 0 0 0 0 0 0 0 0 0 0 0 0 0 0 0 0 0 0 0 0 0 0 0 0 -5 -17 -3
0 0 0 0 0 0 0 0 0 0 0 0 0 0 0 0 0 0 0 0 0 0 0 0 0 0 0 0 0 0 0 0 0 0 0 0 0 0 0 0 0 0 0
0 0 0 0 0 0 0 0 0 0 0 0 0 0 0 0 0 0 0 0 0 0 0 0 0 0 0 0 0 0 0 0 0 0 0 0 0 0 0 0 0 0 0
0 0 0 0 0 0 0 0 0 0 0 0 0 0 0 0 0 0 0 0 0 0 0 0 0 0 0 0 0 0 0 0 0 0 0 0 0 0 0 0 0 0 0
0 0 -2 -3 0 0 0 0 0 0 0 0 0 0 0 0 0 0 0 0 0 0 0 0 0 0 0 0 0 0 0 0 0 0 0 0 0 0 0 0 0 0 0
0 0 0 0 0 0 0 0 0 0 0 0 0 0 0 0 0 0 0 0 0 0 0 0 0 0 0 0 0 0 0 0 0 0 0 0 0 0 0 0 0 0 0
0 0 0 0 0 0 0 0 0 0 0 0 0 0 0 0 0 0 0 0 0 0 0 0 0 0 0 0 0 0 0 0 0 0 0 0 0 0 0 0 0 0 0
0 0 0 0 0 0 0 0 0 0 0 0 0 0 0 0 0 0 0 0 0 0 0 0 0 0 0 0 0 0 0 0 0 0 0 0 0 0 0 0 0 0 0
0 0 0 0 0 0 0 0 0 0 0 0 0 0 0 0 0 0 0 0 0 0 0 0 0 0 0 0 0 0 0 0 0 0 0 0 0 0 0 0 0 0 0
0 0 0 -1 -1 0 -4 -2 -7 -7 -6 -5 -8 0 0 0 0 0 0 0 0 0 0 0 0 0 0 0 0 0 0 0 0 0 -2 -3 -1 0 0 0 0 0 0
-3 -3 -5 -33 -25 -15 -4 -4 -6 0 -9 -16 -8 -18 0 0 0 -2 0 0 0 0 0 0 0 0 0 0 0 0 0 0 0 0 0 0 0 0 0 0 0 0 0
-5 -13 -22 -20 0 -19 -9 -14 -3 -32 -30 -1 -10 -7 -25 -28 -23 -10 -10 -6 -11 -7 -3 -2 -2 0 0 -1 0 0 0 0 0 0 0 0 0 0 0 0 0 0 0
-8 0 0 0 0 0 -13 0 -18 -3 0 0 -1 -6 -2 -3 -2 -2 -4 -5 -2 -2 -9 -9 -15 -23 -16 0 -6 0 0 0 0 0 0 0 0 0 0 0 0 0 0
Wind_Speed
12 14 15 16 19 22 22 24 25 25 26 26 27 27 27 25 26 24 23 22 21 20 19 18 17 18 16 17 19 20 17 16 20 19 18 21 23 22 22 22 23 24 25
12 14 15 16 19 21 22 23 24 26 25 26 25 26 27 27 26 25 23 23 23 22 20 19 19 18 18 18 17 19 20 20 19 18 16 19 20 20 20 21 22 23 24
13 14 14 15 18 20 22 22 23 24 25 25 25 25 26 26 26 26 25 24 23 22 21 22 21 21 18 18 18 18 18 19 20 18 16 18 18 18 19 19 19 21 22
16 15 15 15 17 19 20 21 22 23 24 23 24 24 25 25 26 26 25 25 25 24 24 23 23 22 21 19 18 17 16 17 17 16 16 16 16 15 16 17 19 19 20
15 13 13 15 15 17 18 20 22 23 23 22 22 22 23 23 24 24 24 25 25 25 25 25 24 23 22 21 19 19 18 17 17 17 16 15 15 16 17 17 17 17 20
13 13 12 13 14 14 16 17 19 21 21 21 21 21 21 22 22 23 23 23 24 24 24 24 23 24 24 23 21 21 20 17 17 16 16 16 17 17 16 16 15 16 18
13 15 19 12 11 11 12 15 17 19 19 19 20 20 20 20 21 22 23 22 23 23 23 22 22 23 22 22 22 22 22 21 19 17 17 17 17 16 15 15 16 16 16
15 17 21 23 18 11 12 13 16 16 17 17 18 18 19 19 20 22 22 21 22 24 23 21 21 21 23 21 22 22 22 22 21 19 18 17 18 17 16 15 15 15 16
18 19 22 25 26 16 11 11 13 14 14 15 16 17 17 18 20 22 21 19 21 22 22 22 20 20 23 20 19 19 20 20 20 20 19 18 18 19 20 13 16 14 16
20 22 24 25 23 17 12 11 12 13 13 14 16 17 18 18 21 22 21 17 19 19 19 20 21 20 22 22 17 18 19 18 17 16 17 17 18 19 21 21 21 20 15
19 21 23 24 23 20 16 14 11 12 13 13 14 17 17 19 20 21 22 20 18 18 20 20 20 21 20 21 21 19 18 18 17 15 15 16 17 20 21 21 21 20 19
18 20 22 23 22 21 18 17 16 12 13 12 13 15 18 18 20 21 20 21 19 18 19 19 18 19 20 20 19 18 17 18 17 15 17 18 19 19 19 19 19 19 18
18 20 21 21 21 20 19 18 17 15 14 15 14 17 17 17 19 19 19 19 18 17 17 17 17 18 18 20 18 18 20 20 18 17 18 17 17 18 16 16 16 17 17
18 18 19 20 20 20 20 19 17 16 16 14 14 16 15 16 16 17 17 17 18 18 16 17 16 17 17 17 17 20 21 20 20 19 18 18 17 18 19 20 17 14 13
17 17 18 18 19 20 21 20 19 18 16 15 15 14 14 15 15 15 16 17 17 16 16 17 17 17 16 16 18 19 17 19 18 19 20 20 19 18 18 20 20 20 19
15 16 16 16 18 19 19 20 21 20 19 17 16 15 15 15 13 15 17 17 16 16 17 17 17 16 19 20 19 17 16 16 19 20 20 21 21 20 20 20 19 20 20
14 14 14 15 17 17 18 18 20 20 19 19 18 16 16 14 15 16 16 16 14 16 17 20 19 19 20 20 20 20 20 19 19 21 21 20 20 20 19 20 19 18 19
13 13 14 15 15 15 15 15 17 17 19 20 18 17 16 16 16 16 16 16 16 15 15 18 20 19 20 20 21 22 20 20 18 18 20 21 20 21 21 20 18 18 22
12 15 16 17 18 18 19 20 20 20 18 18 18 17 16 16 16 16 16 17 18 20 14 19 17 19 20 19 20 21 22 22 22 21 21 21 22 21 22 19 19 19 19
15 15 14 15 16 17 19 19 19 18 18 18 15 15 16 17 16 15 14 15 17 20 21 19 19 16 17 18 20 21 21 20 20 20 20 20 18 20 22 24 21 17 14
12 13 15 15 18 18 19 20 20 20 19 21 17 18 16 17 18 14 12 12 14 18 20 21 22 23 18 16 15 18 18 20 23 18 19 21 19 21 21 23 20 20 17
13 13 14 16 16 17 20 18 17 18 18 18 15 14 16 18 17 20 20 17 18 18 18 19 19 21 23 23 14 14 15 18 19 19 20 20 22 22 19 19 20 21 19
13 13 15 14 18 17 18 17 22 20 21 21 19 14 15 16 16 15 16 16 17 17 16 17 18 19 20 18 18 17 17 18 20 22 24 21 20 21 21 21 21 20 20
14 15 17 17 18 19 21 23 23 23 22 23 22 22 20 18 18 20 18 17 17 19 18 15 16 16 19 21 23 21 19 18 18 20 22 23 25 27 27 24 23 24 24
17 17 18 19 18 19 20 23 23 23 24 21 21 20 21 19 19 20 21 20 25 23 25 23 21 22 23 21 21 22 22 20 19 20 20 23 26 27 25 25 26 25 23
16 16 17 18 20 22 23 25 25 24 23 24 24 20 23 24 24 26 26 24 25 23 22 24 26 29 35 31 31 36 22 17 18 18 20 22 24 25 25 24 23 24 25
Wind_Direction
66 67 74 60 41 24 33 30 27 30 18 8 6 10 11 3 14 17 13 6 10 1 345 339 332 323 328 319 310 306 316 320 312 324 334 335 337 344 349 355 358 352 353
54 70 74 55 36 25 32 31 28 22 24 22 11 13 20 20 17 16 13 13 18 10 359 0 351 348 341 335 332 322 315 317 323 327 341 338 343 348 352 351 352 359 -0
65 84 86 59 38 26 28 31 30 30 25 21 14 17 19 19 21 27 29 24 16 6 6 7 9 12 346 346 349 342 332 326 326 337 343 341 344 350 358 359 0 2 7
103 92 80 56 43 34 33 32 29 27 23 19 19 27 26 26 25 32 33 32 28 23 17 14 27 27 21 14 14 15 0 357 359 1 1 4 4 8 4 6 4 359 359
94 99 86 55 40 31 31 23 21 21 25 24 24 20 22 22 18 28 35 36 37 33 30 27 21 19 16 16 16 13 19 22 20 21 18 15 12 4 356 357 355 356 355
81 67 68 50 27 35 31 26 22 24 25 24 25 21 21 23 11 14 29 32 30 31 30 31 34 28 26 23 19 13 8 14 14 11 9 4 2 2 7 4 6 356 352
35 22 358 28 36 40 32 31 21 20 22 21 14 19 19 20 13 9 9 28 25 24 23 28 26 19 24 24 17 13 11 11 13 14 10 8 6 6 10 6 1 358 357
8 0 348 340 1 26 23 23 19 23 22 21 21 18 16 12 8 4 7 21 20 15 14 20 25 21 14 24 25 21 18 15 14 17 18 15 10 8 9 8 11 9 6
0 357 345 332 326 5 20 17 18 23 24 26 22 16 15 12 2 2 6 18 10 12 12 11 15 12 5 16 25 22 20 23 24 25 25 21 13 4 353 359 356 358 355
344 347 346 344 345 0 20 19 19 13 18 15 13 10 16 12 357 357 358 20 19 17 16 11 8 5 360 0 13 12 9 15 20 24 19 15 11 1 352 349 343 346 355
353 352 350 350 349 355 10 14 29 32 22 21 23 18 15 9 4 1 2 5 9 18 13 8 3 1 4 1 0 3 10 9 12 16 19 12 11 1 355 345 342 346 348
3 2 357 345 350 354 3 5 7 29 24 16 17 12 3 3 3 360 0 5 8 10 5 5 5 4 1 1 359 5 6 358 360 1 2 357 353 2 1 1 1 3 6
358 4 6 1 356 357 1 4 6 12 8 1 358 354 359 5 5 5 6 4 7 4 6 7 5 4 6 4 8 4 354 351 354 357 356 356 357 355 355 2 9 13 12
360 5 8 7 8 7 5 5 6 2 360 1 357 356 359 -0 6 8 7 8 6 7 7 5 4 2 7 7 360 355 349 348 349 350 349 348 352 350 347 341 353 4 8
360 3 5 11 11 9 8 8 7 7 8 3 3 4 360 359 1 7 5 3 3 4 5 2 358 357 354 359 357 352 357 349 349 345 342 340 342 343 346 341 339 344 350
353 356 2 6 9 11 12 9 10 12 13 14 12 10 4 6 10 2 358 -0 3 3 357 355 354 355 349 350 350 352 353 350 343 340 338 335 335 335 333 340 346 345 348
358 6 8 8 7 9 12 12 10 11 17 14 13 10 7 10 5 2 0 1 3 356 351 347 351 351 348 347 345 343 345 343 339 333 333 337 331 333 335 338 341 346 347
3 4 5 4 7 12 16 16 17 18 13 10 12 10 10 7 4 1 358 356 356 359 357 350 351 351 348 345 342 341 340 341 339 336 332 327 328 327 331 331 342 343 339
4 2 2 1 5 8 6 4 4 6 14 13 13 11 12 5 2 359 355 350 348 346 353 351 353 349 348 346 344 341 335 333 332 330 329 323 324 328 328 331 335 340 343
359 5 14 11 10 9 8 9 11 11 8 6 5 15 15 9 7 8 5 356 350 349 349 352 352 356 351 347 343 340 336 334 331 329 324 322 328 327 321 323 332 337 345
11 3 359 8 6 6 7 8 6 5 6 4 11 12 14 5 354 356 4 3 360 353 350 350 346 344 352 352 353 350 345 337 330 329 327 321 321 321 321 324 329 329 336
6 5 4 7 9 9 359 360 4 3 4 5 11 14 13 8 3 353 354 355 353 354 355 353 351 348 343 347 349 347 347 345 337 335 329 325 321 322 325 325 325 325 326
2 3 2 3 360 358 358 358 353 356 354 355 357 4 7 7 8 7 1 359 359 358 357 354 352 350 350 349 347 344 340 337 333 329 328 329 327 323 320 318 318 320 320
350 354 357 359 351 350 354 352 354 347 347 346 348 348 358 358 355 352 351 349 347 347 345 343 342 342 342 339 336 336 334 333 332 330 328 325 321 318 314 315 313 311 312
346 347 347 347 352 355 349 346 348 348 349 354 347 351 352 346 344 340 340 341 339 339 338 337 337 330 327 326 327 328 327 328 329 328 327 325 321 318 315 311 308 310 310
357 -0 360 355 352 352 348 346 346 350 354 351 357 357 351 351 347 344 347 347 347 347 346 339 333 330 325 323 325 318 312 312 313 317 322 323 323 322 316 312 309 305 303